| time (UTC) | temp F | wind direction | speed knots | gust knots | rain 1hr in | rain 24hr in | rain mn in | humidity % | barometer mb |
| 20260901023016 | 74 | 354 | 0.0 | 0.0 | 0.00 | 0.03 | 0.00 | 87 | 1011.7 |
| 20260901021514 | 74 | 354 | 0.0 | 0.0 | 0.00 | 0.03 | 0.00 | 87 | 1011.7 |
| 20260901020032 | 75 | 354 | 0.0 | 0.0 | 0.00 | 0.03 | 0.00 | 86 | 1011.5 |
| 20260901014510 | 75 | 354 | 0.0 | 0.0 | 0.00 | 0.03 | 0.00 | 86 | 1011.5 |
| 20260901013007 | 76 | 354 | 0.0 | 0.0 | 0.00 | 0.03 | 0.00 | 85 | 1011.4 |
| 20260901011502 | 77 | 354 | 0.0 | 0.0 | 0.00 | 0.03 | 0.00 | 84 | 1011.3 |
| 20260901010058 | 78 | 354 | 0.0 | 0.0 | 0.00 | 0.03 | 0.00 | 83 | 1011.2 |
| 20260901004542 | 79 | 354 | 0.0 | 0.0 | 0.00 | 0.03 | 0.03 | 83 | 1010.9 |
| 20260901003044 | 80 | 354 | 0.0 | 0.0 | 0.00 | 0.03 | 0.03 | 80 | 1010.6 |
| 20260901001526 | 81 | 354 | 0.0 | 0.0 | 0.00 | 0.03 | 0.03 | 79 | 1010.4 |
| 20260901000020 | 82 | 354 | 0.0 | 0.0 | 0.00 | 0.03 | 0.03 | 76 | 1010.2 |
| 20260831234503 | 83 | 354 | 0.0 | 0.0 | 0.00 | 0.03 | 0.03 | 76 | 1009.8 |
| 20260831233003 | 84 | 354 | 0.0 | 0.0 | 0.00 | 0.03 | 0.03 | 73 | 1009.8 |
| 20260831231545 | 85 | 354 | 0.0 | 0.0 | 0.00 | 0.03 | 0.03 | 73 | 1009.6 |
| 20260831230045 | 86 | 348 | 0.0 | 0.0 | 0.00 | 0.03 | 0.03 | 71 | 1009.7 |
| 20260831224524 | 87 | 348 | 0.0 | 0.0 | 0.00 | 0.03 | 0.03 | 69 | 1010.0 |
| 20260831223023 | 88 | 348 | 0.0 | 0.0 | 0.00 | 0.03 | 0.03 | 66 | 1010.2 |
| 20260831221504 | 89 | 11 | 0.0 | 0.0 | 0.00 | 0.03 | 0.03 | 64 | 1010.3 |
| 20260831220006 | 91 | 74 | 0.0 | 0.9 | 0.00 | 0.03 | 0.03 | 62 | 1010.4 |
| 20260831214547 | 91 | 73 | 0.0 | 0.9 | 0.00 | 0.03 | 0.03 | 62 | 1010.6 |
| 20260831213042 | 92 | 84 | 0.0 | 0.9 | 0.00 | 0.03 | 0.03 | 61 | 1010.7 |
| 20260831211523 | 93 | 84 | 0.0 | 1.7 | 0.00 | 0.03 | 0.03 | 59 | 1010.8 |
| 20260831210022 | 93 | 105 | 0.0 | 0.9 | 0.00 | 0.03 | 0.03 | 60 | 1011.0 |
| 20260831204509 | 93 | 109 | 0.0 | 0.9 | 0.00 | 0.03 | 0.03 | 59 | 1011.0 |
| 20260831203001 | 93 | 249 | 0.0 | 0.9 | 0.00 | 0.03 | 0.03 | 58 | 1011.2 |
| 20260831201549 | 93 | 47 | 0.0 | 0.9 | 0.00 | 0.03 | 0.03 | 59 | 1011.3 |
| 20260831200045 | 92 | 100 | 0.0 | 1.7 | 0.00 | 0.03 | 0.03 | 64 | 1011.6 |
| 20260831194540 | 91 | 360 | 0.0 | 1.7 | 0.00 | 0.03 | 0.03 | 63 | 1011.6 |
| 20260831193026 | 91 | 1 | 0.0 | 1.7 | 0.03 | 0.03 | 0.03 | 67 | 1011.7 |
| 20260831191506 | 90 | 37 | 0.0 | 1.7 | 0.03 | 0.03 | 0.03 | 71 | 1012.0 |
| 20260831190006 | 89 | 25 | 0.0 | 0.0 | 0.03 | 0.03 | 0.03 | 79 | 1012.2 |
| 20260831184610 | 90 | 1 | 0.0 | 0.9 | 0.03 | 0.03 | 0.03 | 71 | 1012.4 |
| 20260831183059 | 95 | 165 | 0.0 | 1.7 | 0.00 | 0.00 | 0.00 | 56 | 1012.3 |
| 20260831181530 | 93 | 62 | 0.0 | 3.5 | 0.00 | 0.00 | 0.00 | 58 | 1012.4 |
| 20260831180034 | 97 | 253 | 0.0 | 1.7 | 0.00 | 0.00 | 0.00 | 54 | 1012.6 |
| 20260831174509 | 97 | 124 | 0.0 | 2.6 | 0.00 | 0.00 | 0.00 | 55 | 1012.7 |
| 20260831173007 | 96 | 233 | 0.0 | 3.5 | 0.00 | 0.00 | 0.00 | 60 | 1012.7 |
| 20260831171548 | 96 | 26 | 0.0 | 0.9 | 0.00 | 0.00 | 0.00 | 60 | 1012.8 |
| 20260831170052 | 96 | 284 | 0.0 | 2.6 | 0.00 | 0.00 | 0.00 | 56 | 1012.9 |
| 20260831164536 | 95 | 314 | 0.0 | 3.5 | 0.00 | 0.00 | 0.00 | 59 | 1013.0 |
| 20260831163036 | 95 | 287 | 0.9 | 3.5 | 0.00 | 0.00 | 0.00 | 57 | 1013.1 |
| 20260831161529 | 94 | 121 | 0.0 | 2.6 | 0.00 | 0.00 | 0.00 | 59 | 1013.0 |
| 20260831160031 | 93 | 302 | 0.0 | 3.5 | 0.00 | 0.00 | 0.00 | 60 | 1013.0 |
| 20260831154528 | 93 | 310 | 0.0 | 1.7 | 0.00 | 0.00 | 0.00 | 63 | 1013.1 |
| 20260831153027 | 93 | 317 | 0.0 | 2.6 | 0.00 | 0.00 | 0.00 | 63 | 1013.0 |
| 20260831151524 | 93 | 77 | 0.0 | 0.0 | 0.00 | 0.00 | 0.00 | 63 | 1013.0 |
| 20260831150020 | 91 | 5 | 0.0 | 0.0 | 0.00 | 0.00 | 0.00 | 65 | 1013.2 |
| 20260831144500 | 91 | 314 | 0.0 | 0.0 | 0.00 | 0.00 | 0.00 | 65 | 1013.0 |
| 20260831143057 | 89 | 42 | 0.0 | 0.0 | 0.00 | 0.00 | 0.00 | 70 | 1013.1 |
| 20260831141555 | 88 | 5 | 0.0 | 0.0 | 0.00 | 0.00 | 0.00 | 70 | 1012.9 |
| 20260831140033 | 86 | 45 | 0.0 | 0.0 | 0.00 | 0.00 | 0.00 | 72 | 1013.0 |
| 20260831134529 | 83 | 335 | 0.0 | 0.0 | 0.00 | 0.00 | 0.00 | 76 | 1013.0 |
| 20260831133007 | 80 | 173 | 0.0 | 0.0 | 0.00 | 0.00 | 0.00 | 82 | 1013.0 |
| 20260831131504 | 78 | 4 | 0.0 | 0.0 | 0.00 | 0.00 | 0.00 | 84 | 1013.1 |
| 20260831130048 | 74 | 173 | 0.0 | 0.0 | 0.00 | 0.00 | 0.00 | 86 | 1013.1 |
| 20260831124538 | 73 | 178 | 0.0 | 0.0 | 0.00 | 0.00 | 0.00 | 86 | 1012.9 |
| 20260831123016 | 72 | 115 | 0.0 | 0.0 | 0.00 | 0.00 | 0.00 | 86 | 1012.8 |
| 20260831121517 | 0 | 0.0 | 0.0 | 0.00 | 0.00 | 0.00 | 1012.7 | ||
| 20260831120050 | 0 | 0.0 | 0.0 | 0.00 | 0.00 | 0.00 | 1012.7 | ||
| 20260831114547 | 0 | 0.0 | 0.0 | 0.00 | 0.00 | 0.00 | 1012.5 | ||
| 20260831113025 | 0 | 0.0 | 0.0 | 0.00 | 0.00 | 0.00 | 1012.5 | ||
| 20260831111519 | 0 | 0.0 | 0.0 | 0.00 | 0.00 | 0.00 | 1012.3 | ||
| 20260831110138 | 0 | 0.0 | 0.0 | 0.00 | 0.00 | 0.00 | 1012.2 | ||
| 20260831104555 | 0 | 0.0 | 0.0 | 0.00 | 0.00 | 0.00 | 1012.1 | ||
| 20260831103032 | 0 | 0.0 | 0.0 | 0.00 | 0.00 | 0.00 | 1012.0 | ||
| 20260831101529 | 0 | 0.0 | 0.0 | 0.00 | 0.00 | 0.00 | 1012.0 | ||
| 20260831100014 | 0 | 0.0 | 0.0 | 0.00 | 0.00 | 0.00 | 1011.8 | ||
| 20260831094517 | 0 | 0.0 | 0.0 | 0.00 | 0.00 | 0.00 | 1011.7 | ||
| 20260831093005 | 0 | 0.0 | 0.0 | 0.00 | 0.00 | 0.00 | 1011.9 | ||
| 20260831091603 | 0 | 0.0 | 0.0 | 0.00 | 0.00 | 0.00 | 1011.8 | ||
| 20260831090056 | 0 | 0.0 | 0.0 | 0.00 | 0.00 | 0.00 | 1011.6 | ||
| 20260831084602 | 0 | 0.0 | 0.0 | 0.00 | 0.00 | 0.00 | 1011.6 | ||
| 20260831083049 | 0 | 0.0 | 0.0 | 0.00 | 0.00 | 0.00 | 1011.5 | ||
| 20260831081558 | 0 | 0.0 | 0.0 | 0.00 | 0.00 | 0.00 | 1011.3 | ||
| 20260831080020 | 0 | 0.0 | 0.0 | 0.00 | 0.00 | 0.00 | 1011.3 | ||
| 20260831074532 | 0 | 0.0 | 0.0 | 0.00 | 0.00 | 0.00 | 1011.5 | ||
| 20260831073137 | 0 | 0.0 | 0.0 | 0.00 | 0.00 | 0.00 | 1011.5 | ||
| 20260831071550 | 0 | 0.0 | 0.0 | 0.00 | 0.00 | 0.00 | 1011.8 | ||
| 20260831070032 | 0 | 0.0 | 0.0 | 0.00 | 0.00 | 0.00 | 1011.8 | ||
| 20260831064533 | 0 | 0.0 | 0.0 | 0.00 | 0.00 | 0.00 | 1012.0 | ||
| 20260831063001 | 0 | 0.0 | 0.0 | 0.00 | 0.00 | 0.00 | 1012.1 | ||
| 20260831061558 | 0 | 0.0 | 0.0 | 0.00 | 0.00 | 0.00 | 1012.0 | ||
| 20260831060043 | 0 | 0.0 | 0.0 | 0.00 | 0.00 | 0.00 | 1012.1 | ||
| 20260831054538 | 0 | 0.0 | 0.0 | 0.00 | 0.00 | 0.00 | 1012.1 | ||
| 20260831053019 | 0 | 0.0 | 0.0 | 0.00 | 0.00 | 0.00 | 1012.0 | ||
| 20260831051513 | 0 | 0.0 | 0.0 | 0.00 | 0.00 | 0.00 | 1012.1 | ||
| 20260831050053 | 0 | 0.0 | 0.0 | 0.00 | 0.00 | 0.00 | 1012.1 | ||
| 20260831044541 | 0 | 0.0 | 0.0 | 0.00 | 0.00 | 0.00 | 1012.0 | ||
| 20260831043019 | 0 | 0.0 | 0.0 | 0.00 | 0.00 | 0.00 | 1011.9 | ||
| 20260831041514 | 0 | 0.0 | 0.0 | 0.00 | 0.00 | 0.00 | 1012.1 | ||
| 20260831040055 | 0 | 0.0 | 0.0 | 0.00 | 0.00 | 0.00 | 1012.1 | ||
| 20260831034549 | 0 | 0.0 | 0.0 | 0.00 | 0.00 | 0.00 | 1012.2 | ||
| 20260831033032 | 0 | 0.0 | 0.0 | 0.00 | 0.00 | 0.00 | 1012.3 | ||
| 20260831031528 | 0 | 0.0 | 0.0 | 0.00 | 0.00 | 0.00 | 1012.3 | ||
| 20260831030039 | 0 | 0.0 | 0.0 | 0.00 | 0.00 | 0.00 | 1012.4 | ||
| 20260831024520 | 0 | 0.0 | 0.0 | 0.00 | 0.00 | 0.00 | 1012.3 |